Temp
12 12 12 12 12 13 13 14 14 14 14 14 14 14 13 12 12 12 13 13 13 13 13 13 14 15 15 15 14 14 14 14 14 14 14 14 13 13 13 13 13 13 13 14 14 14 13 13 13 13 14 14 14 14 14 13 13 13 13 14 14 15 15 14 14 14 14 14 14
12 12 12 12 12 13 13 14 14 14 14 14 14 13 12 11 11 12 12 12 13 13 13 13 14 15 15 15 14 14 14 14 14 14 14 13 13 14 13 13 13 13 13 14 14 14 13 13 13 13 14 14 14 14 14 14 13 13 13 13 14 14 14 14 14 14 14 14 14
12 12 12 12 12 13 13 14 14 14 14 14 13 12 11 11 11 11 12 12 12 13 13 14 14 15 15 15 14 14 14 14 14 14 13 13 13 13 13 13 13 13 13 14 14 14 13 13 13 13 14 14 14 14 14 14 13 13 13 13 14 14 14 14 14 14 14 14 14
12 12 12 12 12 13 13 13 13 13 14 14 13 12 11 11 11 12 12 12 12 12 13 13 14 15 15 15 14 14 14 14 14 13 13 13 13 13 13 13 13 13 13 13 14 14 13 13 13 13 13 14 14 14 14 14 14 13 13 13 13 14 14 14 14 14 14 14 14
12 12 12 12 13 13 13 13 13 13 13 13 13 12 11 12 12 12 12 12 12 12 12 12 13 14 15 15 14 14 14 14 13 13 13 13 13 13 13 13 13 13 13 13 13 13 13 13 13 12 13 13 13 14 14 14 14 13 13 13 13 14 14 14 14 14 14 14 14
12 12 12 13 13 13 13 12 12 12 12 12 12 12 11 12 12 12 12 12 12 12 12 12 12 13 14 14 14 14 14 14 13 14 14 13 13 13 13 13 13 13 13 13 13 13 13 13 12 12 12 12 13 13 13 13 13 13 13 12 13 14 14 14 14 14 14 14 14
12 12 13 12 13 12 12 11 11 11 12 12 12 12 12 12 12 12 13 13 13 12 12 12 12 12 13 13 14 14 14 14 13 13 13 13 13 13 13 12 13 13 13 13 13 13 13 13 12 12 12 12 12 12 13 13 13 13 12 12 12 13 14 14 14 14 14 14 14
13 13 12 12 12 12 11 11 11 11 12 12 12 12 12 12 12 12 13 13 13 13 12 12 12 12 12 13 14 14 14 14 13 13 13 13 13 13 12 12 12 12 12 12 12 12 12 12 12 12 12 12 12 12 12 13 13 13 12 12 12 13 14 14 14 14 14 14 14
13 12 12 12 12 12 11 12 12 12 13 12 12 12 11 11 12 12 13 13 13 13 13 12 12 12 12 13 13 14 14 14 13 13 13 13 13 12 12 12 12 12 12 12 12 12 12 12 12 12 12 12 12 12 12 13 13 12 12 12 12 13 14 14 14 14 14 14 14
13 12 12 12 12 12 12 12 13 13 12 12 11 11 11 11 12 13 13 13 13 13 13 12 12 12 12 12 13 13 14 14 13 13 13 13 13 12 12 12 12 12 12 12 12 12 12 12 12 12 12 12 12 12 12 12 12 12 12 12 13 14 14 14 14 14 14 14 14
12 12 12 12 12 12 12 11 11 11 11 11 11 11 11 12 12 13 13 13 13 12 12 12 12 12 12 12 13 13 13 13 13 13 13 12 12 12 12 12 12 12 12 12 12 12 11 11 12 12 13 13 13 12 12 12 12 12 12 13 13 14 14 14 14 14 14 14 14
12 12 12 12 12 11 10 10 10 10 11 11 11 12 12 12 13 13 12 12 12 12 12 12 12 12 12 12 13 13 13 13 13 13 12 12 12 12 12 12 12 12 12 12 12 11 11 11 12 12 13 13 13 12 12 12 13 13 13 13 14 14 14 14 14 14 14 14 14
12 12 12 12 11 10 10 10 10 10 11 11 11 12 12 13 13 12 12 12 12 12 13 13 12 12 12 13 13 13 13 13 13 13 12 12 12 12 12 11 11 11 11 11 11 11 11 11 12 12 12 12 12 12 13 13 13 14 14 14 14 14 14 14 14 14 14 14 14
12 12 12 11 10 10 10 10 10 10 11 11 11 12 12 12 13 12 12 11 12 13 13 13 12 12 12 13 13 13 13 13 13 13 12 12 12 12 11 11 11 11 11 11 11 11 11 11 12 12 12 12 12 13 13 14 14 14 14 14 14 14 14 14 14 14 14 14 14
12 12 11 11 10 10 10 10 10 10 11 11 11 12 12 12 12 12 12 12 12 13 13 13 12 12 12 13 13 13 13 13 13 12 12 12 12 11 11 11 11 11 11 11 11 11 11 11 12 12 12 12 12 13 14 14 14 14 14 14 14 14 14 14 13 13 14 14 14
12 12 12 11 11 11 11 11 11 11 11 11 12 13 12 12 12 12 12 12 12 12 12 12 12 12 12 13 13 13 13 13 12 12 12 12 11 11 11 11 11 11 11 11 11 11 11 12 12 12 12 12 13 14 14 14 14 14 14 14 14 14 14 14 14 14 14 14 14
12 12 12 12 13 13 13 13 13 13 13 12 13 14 14 13 12 12 12 12 12 12 12 12 12 12 13 13 13 13 12 12 12 12 12 11 11 11 11 11 11 11 11 11 11 11 12 12 12 12 12 12 13 13 14 14 14 14 14 14 14 14 14 14 14 14 14 14 14
12 12 13 13 13 13 14 14 14 14 13 13 14 14 14 13 13 12 12 12 12 12 12 12 12 13 12 12 12 12 12 12 12 12 11 11 11 11 11 11 11 11 11 11 11 12 12 12 12 12 12 12 13 13 13 14 14 14 14 14 14 14 14 14 14 14 14 14 14
13 13 13 13 13 13 14 14 13 13 13 13 13 13 14 13 13 13 12 12 12 12 12 12 12 12 12 11 12 12 12 12 12 11 11 11 11 11 11 11 11 11 11 11 11 12 12 12 12 12 12 12 12 13 13 14 14 14 14 15 15 15 15 15 14 14 14 14 14
13 12 12 13 13 13 13 13 13 12 13 13 13 13 13 13 13 13 13 13 12 12 12 12 11 11 11 11 11 12 12 12 12 11 11 11 11 11 11 11 11 11 11 11 11 12 12 12 12 12 12 12 13 13 14 14 14 15 15 15 15 15 15 15 14 14 14 14 14
12 12 12 12 12 12 12 12 12 12 12 13 13 13 13 13 13 13 13 13 13 12 12 12 11 11 11 11 11 12 12 11 11 11 11 11 11 11 11 11 11 11 11 11 11 12 12 12 12 12 12 13 13 14 14 14 15 15 15 15 15 15 14 14 14 14 14 14 14
12 12 12 12 12 11 11 12 12 12 12 13 13 13 13 13 13 13 13 13 13 12 12 12 12 12 11 11 11 12 11 11 11 11 11 11 11 11 11 11 11 11 11 11 12 12 12 12 12 13 13 14 14 14 15 15 15 14 14 14 14 14 14 14 14 14 14 14 14
12 12 12 12 11 11 11 12 12 12 12 13 13 13 13 13 13 13 13 13 12 12 12 12 12 12 12 11 11 11 11 11 11 11 11 11 11 11 11 11 11 11 11 11 12 12 12 13 13 13 14 14 14 15 15 15 14 14 13 13 13 13 13 13 14 14 14 14 14
12 12 11 12 12 12 12 12 12 12 13 13 13 13 13 13 13 13 13 13 12 12 12 12 12 12 11 11 11 11 11 11 11 11 11 11 11 11 11 11 11 11 11 12 12 12 13 13 14 14 14 14 15 15 15 14 14 13 13 13 13 13 13 13 13 13 13 13 13
12 12 12 12 12 12 12 12 12 12 13 13 13 13 13 13 13 13 13 12 12 12 12 12 11 11 11 11 11 11 11 11 11 11 11 11 11 12 12 12 12 12 12 12 13 13 13 13 14 14 14 15 15 15 14 13 13 13 13 13 13 12 12 12 12 12 12 11 11
12 12 12 12 12 12 12 12 12 12 12 12 12 12 12 12 12 12 12 12 12 12 12 11 11 11 11 11 11 11 11 11 11 11 11 11 11 12 12 12 12 12 12 12 13 13 13 13 14 14 15 15 15 14 13 13 13 13 13 12 12 12 12 11 11 11 10 10 10
12 12 12 12 12 12 12 12 12 12 12 12 12 12 12 12 12 12 12 12 12 12 11 11 11 11 11 11 11 11 11 11 11 11 11 11 12 12 12 12 12 12 12 12 12 13 13 13 14 15 15 14 14 13 13 12 12 12 12 12 12 11 11 11 10 10 10 10 10
12 12 12 12 12 12 12 12 12 12 12 12 12 12 12 12 12 12 12 12 12 11 11 11 11 11 11 11 11 11 11 11 11 11 11 12 12 12 12 12 12 12 12 12 12 12 13 14 14 14 14 14 14 13 13 12 12 12 12 11 11 11 10 10 10 10 9 9 9
12 12 12 12 12 12 12 12 12 12 12 12 12 12 12 12 12 12 12 12 12 11 11 11 12 12 12 12 12 12 12 12 12 12 12 11 11 11 12 12 12 12 12 12 12 12 13 14 14 14 14 14 13 13 13 12 12 11 11 10 10 10 10 10 9 9 9 8 8
12 12 12 12 12 12 12 12 12 12 12 12 12 12 12 12 12 12 12 12 12 12 12 12 12 12 12 12 12 12 12 12 12 12 12 12 12 12 12 12 12 12 12 12 12 13 13 14 14 14 14 14 13 13 12 12 11 11 10 10 10 9 9 9 9 8 8 8 8
12 12 12 12 13 13 12 12 12 12 12 12 12 12 12 12 12 12 12 12 12 12 12 12 12 12 12 12 12 12 12 12 12 12 12 12 12 12 12 12 12 12 13 13 13 13 14 14 14 14 14 13 13 13 12 12 11 10 10 9 9 9 9 8 8 8 8 7 7
12 12 12 12 12 12 12 12 12 12 12 12 12 12 12 12 12 12 12 12 12 12 12 12 12 12 12 12 12 12 12 12 11 11 11 11 11 12 12 12 12 12 13 13 13 13 13 13 13 13 13 13 13 12 12 11 10 9 9 9 8 8 8 8 8 7 7 7 7
12 12 12 12 12 12 12 12 12 12 12 12 12 12 12 12 12 12 12 12 12 12 12 12 12 12 12 12 12 11 11 11 11 11 11 11 11 11 11 12 12 12 12 12 13 13 13 13 13 13 13 13 12 12 11 10 9 9 8 8 8 8 8 7 7 7 7 7 7
12 12 12 12 12 12 12 12 12 12 12 12 12 12 12 12 11 11 11 11 11 11 11 11 11 11 11 11 11 11 11 11 11 11 11 11 11 11 11 11 11 11 12 12 12 12 12 12 12 12 12 12 11 11 10 9 9 8 8 7 7 7 7 7 7 7 7 7 7
12 12 11 11 11 11 11 12 12 12 12 12 12 12 12 11 11 11 11 11 11 11 11 11 11 10 10 11 11 11 10 10 10 10 10 10 11 10 10 10 10 11 11 12 12 12 12 11 11 11 11 11 10 10 9 8 8 8 7 7 7 7 7 6 6 6 7 7 7
11 11 11 11 11 11 11 11 11 11 11 11 11 11 11 11 11 11 11 11 11 10 10 10 10 10 10 10 10 10 10 9 9 9 10 10 10 10 9 9 9 10 10 11 11 11 11 11 11 11 11 10 9 9 8 8 7 7 7 7 6 6 6 6 6 6 6 6 6
11 11 11 11 11 11 11 11 11 11 11 11 11 11 10 10 10 10 10 11 10 10 9 9 9 9 9 9 9 9 9 9 9 8 9 9 9 9 8 8 8 9 9 9 10 10 10 10 10 10 10 10 9 8 7 7 7 6 6 6 6 6 6 6 6 6 6 6 6
11 11 11 11 11 11 11 11 11 10 10 10 10 10 10 10 10 10 10 10 10 9 9 9 8 8 8 8 8 8 8 8 8 8 8 8 8 8 8 8 8 8 8 8 9 9 9 9 9 9 9 9 8 7 7 6 6 6 6 5 5 5 5 5 6 5 5 5 5
11 11 11 11 10 10 10 10 10 10 10 10 10 10 9 9 9 9 9 9 9 9 8 8 8 7 7 7 7 7 7 7 7 7 7 7 7 7 7 7 7 7 8 8 8 8 8 9 9 9 9 8 8 7 7 6 6 5 5 5 5 5 5 5 5 5 5 4 4
10 10 10 10 10 10 10 10 10 9 9 9 9 9 9 9 9 9 9 9 8 8 8 7 7 7 7 7 7 6 6 6 6 6 6 6 6 6 7 7 7 7 7 7 7 8 8 8 8 8 8 8 7 7 7 6 6 5 5 5 4 4 4 4 4 4 4 3 3
10 10 10 10 10 9 9 9 9 9 9 9 9 9 9 8 8 8 8 8 8 8 7 7 7 7 7 6 6 6 6 5 5 5 5 6 6 6 6 6 6 6 6 7 7 7 7 7 7 8 8 7 7 7 7 6 6 5 5 4 4 4 4 4 3 3 3 3 3
Height
715 715 715 715 715 714 714 714 714 714 713 712 710 710 713 716 718 719 719 719 718 717 716 716 717 718 719 721 724 725 727 729 731 733 735 736 738 739 740 742 744 745 747 749 750 751 753 754 755 756 757 758 759 760 761 762 763 764 765 767 768 769 769 770 770 771 772 773 774
714 714 714 714 714 714 714 714 713 713 712 710 709 711 714 718 719 719 719 719 718 716 716 716 717 718 719 721 723 725 727 729 730 733 734 736 737 738 739 741 743 744 746 748 749 750 752 753 754 756 757 758 759 759 760 761 762 763 764 766 768 769 769 769 770 771 772 772 773
713 712 713 713 713 713 713 713 712 711 710 709 710 712 715 718 719 719 719 718 717 716 716 716 717 718 719 721 722 724 726 728 730 732 734 735 737 738 739 740 742 744 745 747 749 750 751 753 754 755 756 757 758 759 759 760 761 762 763 765 767 768 768 769 769 770 771 772 773
712 712 712 712 712 712 712 712 711 710 709 709 710 713 716 717 718 718 718 718 717 716 715 716 717 718 719 720 722 724 726 728 730 732 733 734 736 737 738 739 741 743 745 746 748 749 751 752 753 754 756 756 757 758 759 760 760 762 764 765 767 767 768 768 769 770 771 771 772
711 711 711 711 711 711 711 711 710 709 709 708 710 713 715 716 716 716 716 717 717 716 716 717 718 718 719 720 721 724 726 728 729 731 733 734 735 737 738 739 740 742 744 746 748 749 750 752 753 754 755 756 757 757 758 759 760 761 763 765 766 767 767 768 769 769 770 771 771
710 710 710 710 710 710 710 710 710 709 709 708 710 713 715 715 715 715 715 716 716 716 717 718 718 718 719 719 721 724 726 728 729 731 732 734 735 736 737 739 740 742 743 745 747 749 750 751 752 753 754 755 756 757 758 758 759 760 762 764 766 767 767 767 768 769 769 770 771
709 709 709 710 709 709 710 710 710 709 709 709 711 713 714 714 714 714 714 715 715 716 717 718 718 719 719 720 721 723 725 727 729 730 732 734 735 736 737 738 740 741 743 744 746 748 749 750 751 752 753 754 756 757 757 758 758 760 762 764 765 766 767 767 767 768 769 769 770
709 709 709 709 709 709 710 711 710 709 708 707 709 711 713 714 715 715 715 716 715 715 716 717 718 719 720 720 720 722 724 726 728 730 732 733 734 735 737 738 739 741 742 744 745 747 748 749 750 751 752 754 755 756 757 757 759 760 762 764 765 765 766 766 767 767 768 769 769
708 708 708 709 709 709 710 710 709 708 706 706 707 710 713 715 716 716 715 716 715 715 715 717 718 719 720 720 720 721 723 725 727 729 731 733 734 735 736 738 739 740 741 743 744 746 747 748 749 750 751 753 754 755 756 757 758 760 762 763 764 764 765 765 766 767 767 768 769
708 708 708 708 709 709 708 708 708 707 707 707 709 711 713 715 715 715 714 715 715 715 716 717 718 719 720 721 722 722 723 724 726 728 730 732 733 735 736 737 739 739 741 742 744 745 746 747 749 750 751 752 754 754 755 756 758 759 761 762 763 764 764 764 765 766 767 767 768
708 708 708 708 708 709 709 709 709 709 709 709 710 712 713 714 714 714 714 715 716 716 717 718 719 719 720 722 723 723 723 724 725 727 729 731 733 734 735 737 738 739 740 741 743 744 746 747 748 749 751 752 753 754 755 756 757 759 760 762 762 763 763 764 765 765 766 767 768
709 708 708 709 709 710 712 713 712 711 710 710 711 711 712 713 714 715 715 716 717 717 717 718 719 720 721 722 723 722 722 723 724 726 729 731 733 734 735 736 737 739 740 741 742 744 745 746 747 749 750 752 753 753 754 755 757 758 759 760 761 762 762 763 764 765 766 766 767
709 709 709 709 710 712 714 714 713 712 711 711 711 711 712 713 714 715 716 717 717 717 717 718 719 720 721 721 721 722 722 724 725 726 728 730 732 734 735 736 737 738 739 741 742 743 744 746 747 749 750 751 752 753 754 755 756 758 759 759 760 761 762 763 764 764 765 766 767
709 709 709 710 711 712 713 713 713 712 711 711 711 711 712 713 713 714 716 717 717 716 716 717 719 720 721 721 721 722 723 724 725 727 728 730 732 733 734 735 737 738 739 740 742 743 744 745 747 748 749 751 752 753 754 755 756 757 758 759 759 760 761 762 763 764 765 766 766
709 709 709 710 711 712 712 712 712 712 712 711 711 712 713 713 713 714 715 716 716 716 716 718 719 720 721 721 721 722 723 724 725 727 728 730 731 733 734 735 736 737 739 740 742 743 744 745 746 748 749 751 752 753 754 755 755 757 757 758 759 759 761 762 763 764 764 765 766
709 709 709 709 710 710 710 710 711 711 711 711 711 711 711 712 713 714 715 716 716 716 717 718 719 720 721 721 722 723 724 724 726 727 728 729 731 732 733 734 735 737 738 740 741 743 744 745 746 748 749 751 752 753 754 754 755 756 757 758 758 759 760 761 762 763 764 765 765
709 709 709 709 709 709 709 709 708 708 709 711 710 709 709 711 713 714 715 716 716 717 718 719 719 720 721 722 722 723 724 724 725 727 728 729 730 731 733 734 735 736 738 739 741 742 744 744 746 747 749 751 752 753 753 754 755 756 757 757 758 759 760 761 762 763 764 764 765
709 709 709 709 709 708 708 708 707 707 708 710 709 709 710 712 714 715 716 716 717 717 718 719 719 720 721 722 722 723 724 724 725 726 727 728 729 731 732 733 735 736 738 739 740 741 743 744 745 747 749 750 751 752 753 754 755 756 756 757 758 759 760 761 762 762 763 764 764
709 709 709 709 709 709 708 708 708 708 709 710 710 710 711 713 714 715 716 717 717 717 718 718 719 720 721 721 722 723 724 724 725 726 727 728 729 730 732 733 734 736 737 739 739 741 742 744 745 746 748 749 751 752 753 754 755 755 757 758 759 759 760 761 761 762 763 763 764
710 710 709 709 709 709 709 709 709 709 710 711 711 712 712 713 714 715 716 717 717 717 718 718 719 720 720 721 722 722 723 724 725 726 727 728 729 730 732 733 734 736 737 738 739 740 742 743 745 746 748 749 751 752 753 754 754 756 757 758 759 759 760 760 761 762 762 763 764
710 710 710 710 710 710 710 710 710 711 711 711 712 713 713 713 714 715 715 716 717 717 718 718 719 719 720 720 721 722 723 724 725 726 727 728 729 730 732 733 734 736 737 738 739 740 742 743 745 746 748 749 750 751 752 754 754 756 757 758 758 759 759 760 760 761 761 762 763
711 710 710 710 710 710 710 711 711 711 711 712 712 713 713 713 714 714 715 715 716 717 717 718 718 719 719 720 721 722 723 724 725 726 727 728 729 731 732 733 734 736 737 738 739 740 742 744 745 746 748 749 750 751 752 753 755 756 756 756 757 757 758 759 760 760 761 762 762
710 710 710 710 710 710 711 711 711 711 711 712 712 712 713 713 713 714 714 715 716 716 717 718 718 719 719 720 721 722 723 724 725 726 727 729 729 731 732 733 734 735 737 738 739 741 743 744 745 747 748 749 749 751 752 753 754 755 755 756 756 757 758 759 759 760 761 762 762
710 710 710 710 710 710 710 710 711 711 711 711 712 712 713 713 713 714 714 715 715 716 717 718 719 719 720 721 722 723 724 725 726 727 728 729 730 731 732 734 734 736 737 739 740 741 743 744 745 746 747 748 749 750 752 753 754 754 755 756 756 757 758 759 759 760 761 761 762
711 711 711 710 710 710 710 710 711 711 711 712 712 713 713 714 714 714 715 715 716 717 718 718 719 719 720 722 723 724 724 725 726 727 728 729 730 731 733 734 735 736 738 739 740 742 743 744 745 746 747 748 749 750 751 752 753 754 755 755 756 756 757 758 759 760 761 762 762
711 711 711 711 711 711 711 711 711 712 712 713 713 714 714 714 714 715 715 716 716 717 718 719 719 720 721 722 723 724 725 726 727 727 728 729 730 732 733 734 735 736 738 739 740 742 743 744 745 746 747 748 749 749 750 752 753 754 754 755 756 756 757 758 759 760 761 762 763
712 712 711 711 711 711 711 712 712 712 713 713 714 714 714 714 715 715 716 716 717 718 718 719 720 721 722 723 724 724 725 726 727 728 729 730 731 732 733 734 735 736 737 738 740 741 743 744 745 746 747 747 748 749 750 751 753 754 754 755 756 757 757 758 759 760 761 762 763
713 712 712 712 712 712 712 712 713 713 713 714 714 714 714 714 715 716 716 717 718 718 719 720 721 722 723 723 724 724 725 726 727 728 729 730 731 732 733 734 735 736 737 739 740 742 743 744 745 745 746 746 747 749 750 751 752 754 754 755 756 757 758 759 760 760 761 762 763
713 712 712 712 712 712 712 713 713 713 713 714 714 714 714 715 716 716 717 718 719 719 720 721 722 722 723 724 724 725 726 727 728 729 730 731 732 733 734 734 735 736 738 739 741 742 744 744 744 745 745 746 747 749 750 751 752 753 754 755 756 757 758 759 760 761 761 762 763
713 713 713 713 712 712 713 713 713 713 714 714 714 714 715 716 716 717 718 719 719 720 721 721 722 722 723 723 724 725 726 727 729 729 730 731 732 733 734 735 736 737 738 740 741 742 743 744 744 745 745 746 748 749 750 751 752 753 754 755 757 757 758 759 760 761 761 762 763
713 713 713 713 713 713 713 713 714 714 714 714 715 715 716 716 717 718 719 719 720 720 721 721 721 721 722 723 724 725 726 728 729 730 731 732 733 734 734 735 737 738 739 740 741 742 743 743 744 745 746 747 748 749 750 751 752 754 754 756 757 758 758 759 760 761 762 762 763
713 713 713 713 713 713 713 714 714 714 715 715 716 716 717 717 718 718 719 719 720 720 721 721 722 722 723 724 725 726 728 729 730 731 732 732 733 734 735 736 737 739 739 740 741 742 743 744 744 745 746 747 748 749 750 751 753 754 755 756 757 758 759 759 760 761 762 763 763
714 714 714 714 714 713 714 714 714 715 715 716 717 717 717 718 719 719 719 720 721 722 722 723 724 724 725 726 727 728 729 730 731 732 733 734 734 735 736 737 738 739 740 740 741 742 743 744 745 746 747 748 749 749 750 752 753 754 755 756 757 758 759 760 761 762 763 763 764
714 715 715 714 714 714 714 714 715 715 716 716 717 718 718 719 719 720 721 721 722 723 724 725 726 727 727 728 729 729 730 731 733 734 734 735 735 736 737 738 739 740 741 741 742 743 744 744 745 746 747 748 749 749 751 752 753 754 755 757 758 759 760 761 761 762 763 764 764
715 716 716 715 715 714 714 715 715 716 716 717 718 719 720 721 721 722 723 723 724 725 726 727 728 728 729 729 730 731 732 733 734 735 735 736 737 737 738 739 740 741 741 742 743 743 744 745 745 746 747 748 749 750 751 752 753 754 756 757 758 759 760 761 762 763 763 764 764
717 717 716 716 716 716 716 716 716 717 718 719 719 721 722 723 723 724 724 724 725 726 727 728 729 729 730 731 731 732 733 734 735 736 736 737 737 738 739 739 740 741 742 743 743 744 744 745 746 746 747 748 749 750 751 752 754 755 756 758 759 760 761 762 762 763 764 764 764
718 718 717 717 717 717 717 717 718 719 719 720 721 722 723 724 725 725 726 726 727 728 729 729 730 731 731 732 733 734 735 735 736 736 737 738 738 739 739 740 741 742 743 744 744 744 745 746 746 747 747 748 749 751 752 753 754 756 757 758 759 760 761 762 763 763 764 764 765
719 719 719 719 719 719 719 720 720 721 722 722 723 724 724 725 726 727 727 728 728 729 730 731 732 733 733 734 734 735 736 737 737 737 738 739 739 739 740 741 742 743 744 745 745 746 746 747 747 748 748 749 750 751 752 754 755 756 758 759 760 760 761 762 763 764 764 765 765
720 720 720 721 721 721 721 722 722 723 724 724 724 725 725 726 727 728 729 729 729 730 731 732 733 734 734 735 735 736 737 738 738 739 739 740 740 741 741 742 743 744 745 746 746 747 747 748 748 749 749 750 751 752 753 754 755 757 758 759 760 761 762 762 763 764 765 765 766
721 722 722 722 723 723 723 724 724 725 725 725 726 726 727 728 728 729 729 730 731 731 732 733 734 735 736 736 737 737 738 739 739 740 740 741 742 742 743 743 744 745 746 747 748 748 749 749 749 750 750 751 752 753 754 754 756 757 758 759 760 761 762 763 764 765 765 766 767
723 723 723 724 724 724 725 725 726 726 727 727 727 728 729 729 729 730 731 731 732 733 734 734 736 737 738 738 738 739 739 740 741 741 742 743 743 744 744 744 745 746 747 748 749 749 749 750 750 751 751 752 753 753 754 755 756 757 759 760 760 761 763 764 765 766 767 768 768
Wind_Speed
23 24 23 23 22 21 21 20 19 20 24 27 28 26 23 21 22 22 21 21 22 22 21 20 18 18 19 20 21 22 21 21 22 23 23 22 22 23 24 25 25 25 25 25 24 22 20 17 17 18 20 22 22 22 22 20 19 18 18 19 20 19 19 19 19 18 17 17 17
22 23 24 23 22 21 20 19 19 20 23 26 27 25 22 21 22 23 24 23 20 19 19 19 19 19 19 20 21 22 22 22 22 22 22 22 22 23 24 24 25 26 26 26 25 24 21 17 16 17 19 21 22 22 21 20 19 19 18 18 19 19 19 19 19 19 18 17 17
21 22 23 23 23 21 20 19 20 21 23 23 23 21 21 21 22 24 26 26 21 18 17 19 20 20 20 20 21 23 23 22 22 22 22 22 22 23 23 24 25 25 26 26 26 25 22 18 15 15 17 19 21 21 20 19 19 19 19 18 19 19 19 19 19 19 19 18 17
20 21 21 22 23 22 20 18 18 20 22 22 21 20 20 21 22 24 25 25 23 19 18 18 19 21 21 21 21 22 22 22 22 22 22 22 22 22 22 23 24 25 26 26 26 26 23 20 17 16 16 17 19 20 20 19 18 18 18 17 18 19 19 19 19 19 19 18 17
19 19 20 21 21 21 20 18 18 19 21 22 21 21 20 20 21 23 24 25 24 21 19 18 17 19 21 21 22 22 22 21 21 22 22 21 21 21 21 22 23 24 25 26 27 26 25 22 20 18 16 17 18 19 20 20 19 18 16 15 16 18 19 19 19 19 19 18 18
17 18 18 19 19 19 19 18 19 19 20 21 21 21 20 20 21 23 24 24 25 23 20 18 17 18 19 22 23 23 22 21 21 21 22 21 21 21 21 21 22 23 24 25 27 27 26 24 22 19 18 17 17 18 20 20 20 19 17 14 15 17 18 18 18 18 18 18 18
16 16 16 16 16 16 17 19 20 20 19 18 18 18 19 20 21 23 22 21 22 22 20 19 18 18 19 21 23 24 23 21 21 21 22 21 21 21 21 21 21 22 23 25 26 27 27 25 23 20 19 18 17 17 19 20 20 19 18 16 16 16 17 17 17 18 18 18 18
13 13 13 13 13 14 15 18 18 17 16 13 11 13 17 18 19 20 19 16 17 19 20 19 19 19 19 20 23 25 24 23 22 22 22 22 21 21 21 21 21 22 23 25 27 27 26 25 22 20 19 18 17 17 18 19 19 19 19 17 17 17 17 17 17 17 18 18 18
10 10 11 11 11 11 12 13 14 14 13 12 11 12 14 16 17 17 16 15 14 15 18 18 18 18 19 19 21 24 25 24 23 23 22 22 22 21 21 21 22 23 24 26 27 27 25 23 20 18 18 18 17 17 18 19 20 20 19 18 17 17 17 17 16 17 17 18 18
8 8 9 10 10 9 9 10 11 12 14 14 14 14 14 14 15 14 14 13 13 14 16 17 17 18 19 19 20 23 25 25 25 24 23 22 22 21 21 22 22 24 25 26 26 25 23 20 17 16 17 17 17 17 18 19 20 20 20 19 18 18 17 17 17 17 17 17 17
7 7 9 9 8 8 8 10 13 15 17 17 16 14 14 14 13 12 12 12 13 15 15 15 15 16 17 19 19 22 25 25 25 24 23 22 22 21 21 22 23 25 26 26 25 24 22 18 16 15 16 17 17 17 18 19 20 20 20 19 19 18 18 17 17 17 17 17 17
7 7 8 8 7 8 10 13 16 18 19 17 15 13 13 13 12 11 11 12 13 15 15 13 13 14 16 18 20 23 24 24 24 23 22 21 21 21 22 22 24 25 26 26 26 24 21 17 15 15 15 16 16 17 18 19 20 21 20 19 19 18 18 17 17 17 16 16 16
7 7 8 8 9 12 15 17 18 19 18 17 15 12 10 10 10 11 12 12 13 13 13 12 12 13 15 18 22 23 23 23 22 21 20 20 21 21 22 23 24 24 25 25 25 24 21 18 16 15 15 15 15 16 18 20 21 20 20 19 18 18 18 17 17 16 16 16 16
7 7 8 9 10 13 16 18 19 19 19 17 15 11 8 6 8 11 12 12 11 10 10 11 11 12 14 19 21 22 21 20 19 18 18 19 20 22 22 23 23 24 24 25 25 23 21 18 16 15 15 15 15 16 18 20 20 20 19 18 17 17 17 17 16 16 16 16 16
6 7 7 8 8 10 12 13 15 17 17 16 14 11 7 4 5 9 12 12 10 8 9 10 11 13 15 18 20 20 19 18 17 16 17 19 21 22 22 23 23 24 24 25 24 23 21 18 16 14 13 14 15 16 17 19 19 19 18 17 16 16 16 16 16 16 16 16 16
6 6 6 7 8 8 8 8 9 10 11 12 11 8 5 3 4 7 10 11 10 9 9 11 13 15 16 17 17 17 16 16 15 16 18 20 21 22 23 23 23 24 24 25 24 23 21 19 16 14 13 13 14 15 16 17 18 18 17 15 14 14 15 16 16 16 16 16 17
7 7 8 8 9 9 8 6 6 5 5 5 5 4 2 1 3 5 8 11 11 11 11 13 14 16 16 16 15 15 14 15 16 17 19 21 22 22 23 23 23 24 24 25 25 24 22 20 18 16 15 14 13 14 15 16 17 17 16 14 14 14 15 16 16 16 16 16 17
7 8 9 9 9 10 9 8 6 6 7 5 2 1 1 3 4 6 8 11 12 13 13 14 14 15 14 14 14 14 14 15 17 19 20 21 22 22 23 23 23 23 24 25 25 24 23 23 21 19 17 15 14 14 15 16 16 16 15 14 14 15 16 17 17 17 17 17 16
8 8 9 9 9 9 9 9 7 7 8 5 2 3 4 6 7 9 10 11 12 12 13 13 12 12 12 13 14 14 15 16 18 19 19 20 21 21 22 22 22 23 24 25 25 26 25 25 23 21 18 16 15 16 16 16 16 15 14 14 15 16 17 17 18 17 17 16 16
9 9 8 8 8 8 9 9 8 8 7 4 3 5 6 8 9 10 11 10 10 9 9 9 10 11 12 13 14 15 16 17 18 18 18 18 19 20 21 21 21 22 23 24 25 26 26 25 23 20 18 17 17 17 17 16 15 15 15 15 16 16 16 15 15 15 15 15 14
9 9 8 8 8 8 8 8 8 7 5 3 4 5 6 7 8 9 9 9 8 8 7 8 9 11 12 14 15 16 17 18 18 17 17 17 17 18 19 20 21 22 22 23 24 25 24 23 20 19 18 18 18 18 17 16 16 15 14 14 14 13 13 13 13 13 13 14 13
8 8 7 7 7 7 7 7 8 7 6 5 5 6 6 6 7 8 9 9 9 9 8 9 10 11 13 14 15 16 17 17 16 16 15 15 16 16 18 19 20 21 21 21 22 22 21 19 18 18 19 19 19 18 17 16 16 14 13 11 11 13 14 13 13 12 13 13 13
8 7 6 6 6 6 6 6 7 7 7 7 7 7 7 7 7 8 9 9 9 9 9 10 11 12 13 14 15 16 16 16 15 14 14 14 14 15 16 17 19 19 19 19 19 19 18 18 18 18 18 18 18 18 17 16 15 13 12 12 13 14 15 14 13 12 13 13 13
8 6 5 4 4 4 4 5 6 7 7 8 8 8 8 8 9 9 10 10 10 10 10 11 12 14 15 15 16 16 16 16 15 14 13 13 13 14 15 16 17 17 17 17 17 17 17 17 18 18 18 18 18 17 16 15 15 14 14 14 14 15 15 14 13 13 12 12 12
6 5 4 3 2 3 3 4 5 6 7 8 8 8 8 9 10 11 12 12 12 12 12 13 14 15 16 16 16 16 16 16 15 14 13 13 13 14 15 15 15 15 15 16 16 16 16 17 17 18 18 18 17 16 15 15 16 15 15 15 15 15 15 14 13 12 11 11 10
4 4 4 3 3 3 4 4 5 6 7 7 8 8 10 11 12 13 13 13 13 14 14 15 16 16 17 17 17 16 16 16 16 16 15 15 15 16 16 15 15 15 16 16 16 16 15 16 17 18 18 17 16 16 16 16 16 15 15 15 15 15 14 13 12 11 10 10 10
4 4 5 5 4 4 5 6 6 7 8 8 8 10 12 13 13 14 14 14 15 15 15 16 16 17 17 17 16 16 16 16 16 17 17 17 17 17 16 16 16 16 17 18 17 15 15 16 17 18 17 17 17 17 17 17 16 15 15 14 14 13 13 12 12 11 11 11 11
4 5 5 5 5 5 6 6 7 8 9 9 11 12 13 14 14 14 15 15 15 16 16 17 17 16 15 15 15 15 16 16 16 16 17 17 17 16 15 15 16 16 17 17 16 15 15 16 18 18 18 18 18 18 18 17 17 16 15 14 12 12 12 12 13 13 14 14 14
3 4 4 5 5 6 6 7 9 10 11 11 12 13 14 14 14 15 15 16 16 16 16 16 15 14 14 13 14 15 15 16 16 16 16 16 16 16 15 16 16 16 17 17 16 16 17 18 18 18 18 18 18 18 18 18 17 16 14 13 12 12 13 14 15 17 18 18 18
2 2 3 5 6 6 7 7 9 11 12 12 13 13 14 15 15 16 16 16 16 16 16 16 15 15 15 15 16 17 17 17 16 16 17 17 17 17 17 17 18 18 18 18 18 18 19 19 19 18 18 18 18 18 18 17 16 15 14 14 14 14 15 17 18 20 21 21 20
2 3 4 5 6 6 7 7 8 11 12 13 13 14 15 15 16 16 16 16 15 16 16 17 18 18 18 18 18 18 18 17 17 17 17 18 18 18 18 18 19 20 20 21 21 20 19 19 18 18 18 17 17 17 17 16 16 15 15 16 16 17 18 19 20 21 21 21 21
4 4 4 4 5 6 7 8 10 12 13 15 15 15 15 15 15 15 15 16 17 17 17 18 19 19 19 18 18 17 17 17 16 16 16 17 18 18 18 19 19 19 20 20 20 20 19 19 18 18 17 17 17 17 16 16 16 16 16 17 18 19 20 20 21 20 20 20 20
5 4 4 4 4 6 9 11 13 14 15 16 17 17 17 17 16 16 17 19 19 19 18 18 18 18 18 18 17 17 16 16 15 15 15 16 17 18 19 19 18 17 17 18 18 18 18 18 18 18 17 17 17 16 16 16 17 18 18 19 19 19 19 20 19 19 19 19 18
7 7 7 8 10 11 12 14 16 17 19 19 19 19 19 19 19 20 21 21 21 20 19 18 18 18 18 18 17 17 16 15 15 14 14 15 16 18 19 19 18 17 17 16 17 17 17 18 18 18 17 17 17 17 18 19 19 20 20 20 20 19 19 18 18 18 18 18 17
11 12 13 15 17 18 18 19 20 21 22 21 20 19 19 19 20 21 21 22 21 21 20 19 19 19 18 18 17 17 17 16 16 15 15 15 16 17 19 19 18 17 17 17 17 17 17 17 18 18 18 18 18 19 20 21 22 22 21 21 20 19 18 17 17 17 16 16 16
14 15 17 18 19 20 21 22 23 23 23 22 21 20 20 20 20 20 21 21 21 21 20 20 19 19 19 18 18 17 17 17 18 18 17 17 18 18 19 19 18 17 16 17 17 17 17 18 18 19 19 19 20 22 22 23 23 23 22 21 20 19 18 17 16 15 15 15 15
17 17 17 18 19 20 21 22 22 22 22 21 21 21 21 21 21 20 20 20 21 21 21 20 20 20 20 19 19 19 18 18 19 19 19 19 19 20 20 19 18 17 16 16 17 17 18 18 18 18 19 21 22 24 24 24 24 23 22 21 20 19 17 16 15 14 13 13 13
18 17 17 18 18 19 19 20 21 21 20 20 21 21 21 21 20 20 20 20 21 22 22 21 21 21 21 21 21 21 20 19 20 20 20 20 20 20 20 20 18 17 15 15 16 16 17 17 17 18 19 22 24 25 25 24 24 23 22 21 20 18 17 15 14 13 12 11 10
18 17 17 17 18 19 19 20 20 19 19 20 20 21 21 21 20 20 20 21 22 23 23 23 22 22 22 22 22 22 21 21 20 21 21 21 20 20 20 20 19 17 15 15 15 16 16 17 18 18 20 22 23 24 24 24 23 22 21 20 19 18 16 15 13 13 12 11 10
17 17 17 18 18 19 19 19 19 19 19 20 20 21 21 21 21 21 22 22 23 23 23 23 23 23 23 23 23 23 23 22 21 21 21 21 21 20 21 21 20 18 17 16 16 16 17 17 18 19 20 21 22 23 23 23 22 21 20 19 19 18 17 16 15 15 14 13 12
17 17 17 18 18 18 19 19 19 19 19 20 20 21 21 21 21 22 22 23 23 23 24 24 24 24 23 24 24 24 24 23 22 22 22 21 21 21 21 21 21 19 18 17 16 17 17 17 18 18 19 20 21 21 21 21 21 21 20 19 19 19 18 18 17 17 16 15 14
Wind_Direction
249 246 245 246 246 246 247 248 245 239 235 233 231 229 224 219 219 220 219 214 210 208 207 202 189 174 167 170 172 172 171 172 176 179 179 179 180 184 187 187 186 185 185 184 182 181 181 185 187 187 186 185 185 186 186 185 183 183 188 195 199 200 199 197 195 193 192 192 192
249 247 246 246 246 247 248 249 244 237 232 230 227 223 219 217 218 221 223 223 215 206 201 199 191 179 171 169 172 173 173 173 175 176 176 177 181 185 187 187 187 187 187 187 185 182 180 180 184 186 186 184 183 183 184 184 183 182 185 192 197 199 198 197 196 195 195 194 193
250 248 246 246 246 248 250 250 245 238 232 228 222 217 214 214 216 219 224 226 221 210 201 198 191 183 175 170 171 173 174 174 173 173 173 175 180 185 188 188 188 188 189 189 188 185 180 177 178 181 182 181 181 181 181 182 181 180 182 189 195 197 197 196 196 195 195 194 193
251 249 247 246 247 248 249 250 246 240 235 230 221 213 210 211 214 218 222 224 221 216 209 204 194 186 178 171 170 171 173 173 171 171 173 176 181 185 188 188 188 189 190 190 189 187 183 177 174 175 176 175 176 176 177 176 175 175 179 187 193 196 195 195 195 194 194 193 193
253 250 249 248 249 249 248 248 244 241 237 231 220 211 206 208 212 216 218 219 217 216 215 212 205 193 181 173 169 169 170 170 170 171 173 176 181 185 188 189 189 189 189 190 191 189 186 181 176 174 174 173 172 172 172 171 168 169 174 185 192 195 194 193 193 193 192 192 192
255 253 251 250 251 251 249 242 238 238 236 229 218 208 204 207 211 214 215 213 210 210 212 215 214 205 191 179 170 167 168 168 168 171 174 177 181 185 187 188 188 188 188 190 191 191 189 185 181 178 177 176 176 176 175 172 169 169 173 182 192 195 193 191 191 191 191 191 191
257 255 252 251 251 248 239 230 230 236 239 233 220 209 205 208 212 213 211 207 202 201 205 212 216 213 202 185 172 167 166 166 168 171 175 177 181 183 184 185 186 186 187 189 191 192 191 188 184 182 180 179 180 182 182 180 178 177 179 184 192 194 192 189 189 190 191 192 191
258 253 251 250 249 239 227 222 229 238 246 248 238 221 212 211 211 210 209 204 198 196 200 206 212 213 204 188 171 166 166 167 169 172 176 179 180 182 183 184 184 185 187 189 190 190 190 188 185 182 180 180 181 183 185 186 186 187 187 188 192 193 191 188 188 190 191 192 192
256 250 249 252 248 234 226 231 240 248 257 266 264 244 225 218 213 210 208 207 205 201 201 203 208 210 206 195 177 167 165 169 172 175 178 180 181 182 183 184 184 185 187 188 188 188 186 184 182 180 179 179 179 180 183 187 190 191 191 190 193 193 190 188 189 191 192 192 192
253 247 249 252 252 248 247 254 256 258 261 262 258 246 233 224 218 212 208 210 211 208 206 206 207 207 205 200 184 170 165 171 175 177 179 182 183 184 184 185 185 185 186 188 187 185 181 178 177 177 178 178 177 177 180 186 189 190 190 192 193 192 190 189 190 191 192 192 192
250 246 249 254 258 259 255 248 245 247 249 249 246 243 237 231 223 215 208 208 209 208 206 206 206 204 200 195 181 170 167 172 175 177 179 183 186 188 189 188 187 186 187 187 186 182 178 174 174 175 177 178 176 175 178 183 186 187 189 192 193 192 190 190 192 193 192 192 193
246 244 251 257 252 231 218 220 228 234 239 240 242 243 242 235 223 211 203 201 200 200 199 200 201 199 193 182 171 167 169 172 174 176 179 183 188 191 191 189 188 187 186 186 184 180 175 172 172 174 177 177 176 176 178 181 183 185 188 191 192 192 191 192 194 194 194 193 193
244 247 254 245 226 209 205 210 220 227 232 235 238 240 240 230 213 202 197 196 193 190 189 190 195 194 183 169 164 166 169 171 173 176 180 185 189 191 190 188 186 185 185 184 183 179 174 170 171 174 176 176 176 178 180 181 183 185 187 189 190 192 193 194 195 196 196 195 195
244 248 249 231 216 207 205 209 216 222 227 230 230 229 224 214 196 191 193 196 191 182 178 182 188 184 173 163 164 166 168 170 173 177 182 186 189 189 187 185 185 184 184 184 182 178 172 169 169 171 174 175 178 180 182 182 183 185 187 189 190 191 193 195 196 196 196 196 197
237 237 239 230 224 215 208 206 212 218 222 224 221 217 212 194 171 178 186 190 185 173 168 173 176 169 163 162 165 168 169 171 175 180 184 186 187 187 185 183 183 183 184 184 181 177 172 167 165 167 171 176 180 183 183 183 184 187 189 190 191 192 193 195 195 196 195 195 196
236 231 234 237 234 232 227 219 220 224 224 220 216 217 216 174 143 165 179 182 178 171 164 162 161 159 160 165 168 170 171 174 179 182 183 184 184 184 183 181 181 183 184 184 181 177 172 167 163 163 170 179 184 184 184 185 186 188 190 192 193 193 194 195 195 194 194 193 194
247 246 249 254 257 261 262 258 257 277 279 239 225 228 235 184 154 170 178 176 175 171 165 159 160 162 165 169 172 174 176 178 181 182 181 181 182 181 181 181 181 183 184 184 181 177 174 171 168 167 172 180 184 185 187 189 189 189 190 192 194 195 195 194 193 192 191 191 191
260 260 263 269 274 277 276 272 274 300 314 302 264 199 174 182 183 182 176 169 167 165 163 163 168 171 172 173 176 179 181 179 178 178 178 179 180 181 181 181 181 183 183 183 181 179 178 177 175 176 179 183 185 189 192 191 189 188 189 192 195 197 196 194 191 189 188 188 188
267 267 269 273 278 278 273 265 272 296 311 309 251 169 163 172 179 178 172 164 162 163 165 167 172 176 178 178 178 180 179 177 174 174 175 178 180 180 181 181 181 182 182 181 180 180 181 181 182 184 187 188 191 193 193 190 188 187 189 193 198 200 198 194 191 189 189 189 189
265 267 269 272 274 267 256 251 265 288 300 287 211 180 173 175 181 182 178 172 170 172 174 174 174 177 179 179 177 176 175 175 173 173 174 177 180 181 182 183 182 182 182 181 180 181 183 185 186 188 189 189 192 192 190 186 184 186 190 196 200 200 195 188 182 182 182 183 184
263 264 267 269 265 255 245 244 258 273 278 249 205 193 191 192 196 200 202 202 201 199 194 185 181 178 176 176 174 173 174 175 174 173 175 179 182 184 186 185 184 183 183 182 181 182 184 186 187 186 186 187 188 187 184 181 183 187 193 197 195 187 177 168 165 165 167 169 170
258 260 266 266 259 251 245 246 252 257 255 241 227 221 220 219 220 222 226 227 225 218 208 197 188 180 176 175 174 173 173 173 171 171 174 178 182 185 186 186 184 183 182 180 180 181 183 184 185 184 183 183 183 182 180 180 184 186 187 180 167 158 156 157 158 159 161 163 165
251 257 265 265 255 248 245 245 247 247 245 242 239 237 236 234 234 235 235 234 229 219 207 198 188 181 178 177 175 171 167 164 162 164 168 173 177 179 179 178 178 177 176 175 175 177 180 183 183 182 180 179 179 178 178 179 178 175 167 154 145 145 150 156 161 164 164 165 167
250 249 254 259 253 246 242 241 244 245 244 242 242 241 239 236 234 234 234 232 227 215 201 189 182 177 175 173 169 163 158 154 154 157 162 166 169 170 169 168 169 170 171 171 173 176 179 181 180 179 178 177 177 177 176 172 168 165 161 154 150 150 154 160 166 170 171 172 172
243 237 237 239 246 244 238 236 239 241 240 237 234 232 229 225 223 223 222 218 211 199 187 177 173 171 168 164 159 155 152 151 153 155 158 159 160 160 159 159 161 164 167 169 172 176 178 179 178 177 177 177 176 172 167 162 165 167 166 164 161 159 160 164 169 173 176 176 175
230 224 224 219 215 216 220 222 226 227 224 220 219 218 216 213 211 208 203 195 187 180 172 167 165 163 160 156 154 153 153 153 153 154 154 154 154 154 154 155 158 163 167 168 169 173 177 178 177 177 176 174 167 158 154 156 162 166 168 168 168 167 165 164 165 168 170 170 167
221 220 217 209 201 199 202 207 210 209 206 206 208 208 207 204 199 192 184 176 171 166 162 159 157 155 153 153 155 156 155 153 153 153 152 152 152 152 154 156 161 166 167 166 166 170 176 177 176 173 169 164 158 152 151 154 159 165 169 170 171 171 167 163 161 159 158 155 153
209 209 205 197 193 191 193 197 198 198 199 203 203 201 197 192 184 176 170 165 160 156 153 151 151 151 154 157 160 158 155 152 151 150 151 151 152 154 156 161 164 166 165 163 163 168 174 174 171 167 163 160 157 156 157 158 161 165 168 169 170 170 168 163 159 153 148 142 139
189 192 189 185 187 190 193 194 193 193 195 196 193 188 182 176 170 165 160 156 152 149 148 149 150 151 152 152 149 146 143 142 142 143 145 148 151 154 158 162 164 163 161 161 164 170 173 170 167 165 164 165 163 162 162 163 165 167 168 168 169 169 166 161 156 149 142 136 132
160 161 171 182 190 194 196 195 190 185 183 180 175 169 164 161 158 154 150 146 142 141 140 139 136 131 126 123 122 121 121 123 128 132 135 137 138 141 147 153 157 159 162 164 168 171 170 167 166 167 169 170 169 168 167 168 168 168 167 167 167 166 163 158 152 145 139 135 133
148 157 174 189 196 198 196 190 180 169 161 155 150 148 146 145 143 140 138 135 132 128 123 120 115 111 110 111 112 113 114 117 121 123 125 126 126 128 133 139 145 151 157 163 166 167 166 166 168 170 173 174 173 171 170 169 168 166 164 163 162 160 157 153 148 143 140 138 136
150 160 172 182 191 191 184 170 156 145 137 130 127 125 124 124 127 127 125 121 119 116 112 110 108 107 109 112 114 116 118 119 119 120 121 122 123 124 127 131 135 142 150 157 160 162 164 166 170 173 176 177 176 173 169 166 163 160 158 156 155 153 151 149 146 143 142 141 140
131 131 132 140 154 161 159 150 140 131 122 115 110 106 104 103 105 106 106 107 109 110 109 109 109 111 113 117 119 119 119 119 120 121 123 125 126 126 127 128 131 138 148 156 160 162 165 168 172 175 177 178 174 170 165 160 155 151 148 146 147 147 147 147 146 145 144 143 141
111 106 100 96 102 112 122 126 125 119 112 107 102 98 97 96 95 95 98 103 108 111 112 112 113 115 117 121 122 121 121 122 124 126 128 130 131 129 127 126 128 137 149 159 164 167 169 171 173 175 175 173 167 162 156 151 146 143 140 140 140 142 144 144 145 146 145 144 142
110 101 92 88 90 94 99 104 106 108 107 106 103 101 100 100 101 101 104 108 112 114 115 116 116 117 118 121 122 123 123 124 126 128 131 133 133 129 125 122 126 135 147 157 164 169 172 174 174 173 170 164 157 152 148 144 140 138 137 137 137 138 140 141 142 144 144 144 144
110 101 92 88 88 89 91 94 97 101 103 105 106 106 107 107 108 110 112 115 116 115 114 115 115 116 115 116 118 120 122 123 124 125 127 130 130 126 122 120 123 130 139 148 156 163 168 170 170 168 164 157 150 145 142 138 136 135 136 135 134 134 136 137 138 140 142 144 146
110 103 96 91 90 90 92 94 96 97 98 101 104 107 109 109 110 113 117 119 117 113 112 113 113 112 112 113 113 115 118 121 121 121 121 124 124 122 120 119 120 124 131 138 145 152 157 160 161 160 157 151 145 141 137 134 132 132 131 129 128 129 131 132 133 135 139 143 148
109 107 103 98 95 95 96 98 98 97 97 98 102 106 109 111 111 114 117 120 117 113 111 110 108 108 110 112 112 112 114 116 117 116 115 116 118 119 118 117 117 120 125 131 137 143 147 150 152 153 151 147 142 139 135 131 128 127 125 123 123 124 126 127 128 129 131 136 143
105 108 107 103 100 99 99 100 100 100 100 101 104 107 109 111 112 114 117 119 118 115 112 109 106 106 109 111 111 110 110 110 112 112 111 110 113 116 117 115 115 118 123 129 133 137 141 144 146 148 147 145 142 139 135 131 127 124 122 121 119 119 120 121 120 118 116 116 120
101 105 105 104 102 100 100 100 100 101 103 105 106 108 109 111 113 115 117 118 117 115 112 110 108 108 109 109 108 107 106 105 106 107 107 107 109 111 113 112 113 116 121 127 130 133 136 139 142 144 144 143 141 139 136 133 128 124 122 120 118 116 114 113 112 109 106 104 104
97 100 101 101 101 102 101 101 101 103 105 106 107 109 112 114 115 116 117 116 115 113 112 110 109 108 108 106 105 103 101 100 101 102 105 106 107 107 108 109 110 113 117 122 126 130 133 136 139 141 143 142 141 140 138 135 130 125 122 120 120 118 114 112 109 107 104 103 102